HADYOS Weather Reports


time (UTC)temp
F
wind
direction
speed
knots
gust
knots
rain 1hr
in
rain 24hr
in
rain mn
in
humidity
%
barometer
mb
20260504140905 63 355 2.6 13.0 0.00 0.00 0.00 57 1015.7
20260504081803 66 82 1.7 7.8 0.00 0.00 0.00 43 1016.4
20260504080903 66 82 1.7 8.7 0.00 0.00 0.00 46 1016.4
20260504080215 65 75 2.6 9.6 0.00 0.00 0.00 46 1016.4
20260504060217 61 100 1.7 7.8 0.00 0.00 0.00 55 1015.5
20260504050217 60 71 0.9 7.0 0.00 0.00 0.00 69 1015.5
20260504045403 59 63 0.9 6.1 0.00 0.00 0.00 70 1015.4
20260504044504 58 90 0.9 5.2 0.00 0.00 0.00 71 1015.5
20260504043603 58 100 0.9 5.2 0.00 0.00 0.00 70 1015.5
20260504042703 58 102 0.9 5.2 0.00 0.00 0.00 69 1015.5
20260504041803 58 65 0.9 6.1 0.00 0.00 0.00 68 1015.4
20260504040903 58 99 0.9 5.2 0.00 0.00 0.00 68 1015.3
20260504040004 58 60 0.9 7.0 0.00 0.00 0.00 67 1015.3
20260504035403 58 49 0.0 3.5 0.00 0.00 0.00 67 1015.3
20260504034503 57 102 0.0 5.2 0.00 0.00 0.00 67 1015.4
20260504033814 56 75 0.9 5.2 0.00 0.00 0.00 67 1015.2
20260504032703 56 104 0.9 4.3 0.00 0.00 0.00 68 1014.9
20260504031803 55 71 0.0 3.5 0.00 0.00 0.00 68 1014.8
20260504030903 55 96 0.0 5.2 0.00 0.00 0.00 69 1014.9
20260504030213 55 77 0.0 4.3 0.00 0.00 0.00 69 1015.0
20260504025403 55 60 0.0 4.3 0.00 0.00 0.00 70 1014.9
20260504024503 55 94 0.0 2.6 0.00 0.00 0.00 70 1015.0
20260504023603 55 113 0.0 3.5 0.00 0.00 0.00 71 1015.1
20260504022703 55 96 0.9 5.2 0.00 0.00 0.00 71 1015.1
20260504021803 55 43 0.0 6.1 0.00 0.00 0.00 72 1015.1
20260504020904 55 119 0.0 1.7 0.00 0.00 0.00 72 1015.2
20260504020004 55 98 0.0 2.6 0.00 0.00 0.00 72 1015.1
20260504015403 55 0 0.0 0.0 0.00 0.00 0.00 72 1015.0
20260504014503 55 84 0.0 2.6 0.00 0.00 0.00 72 1015.1
20260504013603 55 85 0.0 0.9 0.00 0.00 0.00 72 1015.1
20260504012912 55 0 0.0 0.0 0.00 0.00 0.00 72 1015.1
20260504011804 55 0 0.0 0.0 0.00 0.00 0.00 72 1015.1
20260504010903 55 0 0.0 0.0 0.00 0.00 0.00 72 1015.2
20260504010004 55 243 0.0 7.0 0.00 0.00 0.00 72 1015.1
20260504005403 55 232 0.9 7.0 0.00 0.00 0.00 72 1015.3
20260504004714 55 199 0.0 4.3 0.00 0.00 0.00 72 1015.3
20260504003603 55 104 0.0 4.3 0.00 0.00 0.00 72 1015.1
20260504002703 56 131 0.0 4.3 0.00 0.00 0.00 72 1015.2
20260504002016 56 87 0.9 3.5 0.00 0.00 0.00 73 1015.2
20260504000903 56 65 0.0 2.6 0.00 0.00 0.00 73 1015.1
20260504000004 56 33 0.0 5.2 0.00 0.00 0.00 73 1015.0
20260503235403 56 7 0.9 6.1 0.00 0.00 0.00 73 1015.0
20260503234503 56 58 0.9 4.3 0.00 0.00 0.00 73 1014.9
20260503233603 56 76 0.9 5.2 0.00 0.00 0.00 74 1014.9
20260503232703 56 12 0.0 4.3 0.00 0.00 0.00 74 1014.8
20260503231803 57 68 0.0 4.3 0.00 0.00 0.00 75 1014.8
20260503230903 57 63 0.9 4.3 0.00 0.00 0.00 75 1014.9
20260503230004 57 66 0.0 3.5 0.00 0.00 0.00 76 1014.9
20260503225403 57 54 0.9 4.3 0.00 0.00 0.00 76 1014.9
20260503224503 57 40 0.9 6.1 0.00 0.00 0.00 76 1014.6
20260503223817 57 28 0.9 6.1 0.00 0.00 0.00 77 1014.7
20260503222914 57 45 0.9 7.0 0.00 0.00 0.00 77 1014.6
20260503221803 58 360 0.0 5.2 0.00 0.00 0.00 76 1014.5
20260503220903 58 83 0.9 5.2 0.00 0.00 0.00 76 1014.6
20260503220004 58 71 0.9 5.2 0.00 0.00 0.00 75 1014.7
20260503215403 58 63 0.9 7.0 0.00 0.00 0.00 75 1014.9
20260503214503 58 311 0.9 7.0 0.00 0.00 0.00 74 1014.8
20260503213603 58 32 0.9 5.2 0.00 0.00 0.00 74 1014.9
20260503212915 58 49 0.9 5.2 0.00 0.00 0.00 74 1015.0
20260503211803 58 1 0.0 3.5 0.00 0.00 0.00 73 1015.0
20260503210903 58 353 0.0 2.6 0.00 0.00 0.00 73 1014.9
20260503210007 58 53 0.0 2.6 0.00 0.00 0.00 73 1014.9
20260503205403 58 47 0.0 2.6 0.00 0.00 0.00 73 1015.1
20260503204716 58 55 0.9 4.3 0.00 0.00 0.00 73 1015.2
20260503203603 58 360 0.9 5.2 0.00 0.00 0.00 72 1015.1
20260503202916 58 359 0.9 7.8 0.00 0.00 0.00 72 1015.0
20260503201803 58 14 0.9 6.1 0.00 0.00 0.00 72 1015.1
20260503200903 58 14 1.7 7.0 0.00 0.00 0.00 72 1015.0
20260503200004 58 333 2.6 9.6 0.00 0.00 0.00 73 1014.9
20260503195403 59 355 1.7 7.8 0.00 0.00 0.00 74 1015.0
20260503194503 59 334 2.6 9.6 0.00 0.00 0.00 74 1015.0
20260503193604 59 348 1.7 7.0 0.00 0.00 0.00 73 1014.8
20260503192703 59 7 2.6 10.4 0.00 0.00 0.00 73 1014.9
20260503191803 59 18 1.7 6.1 0.00 0.00 0.00 74 1014.7
20260503190903 59 22 1.7 6.1 0.00 0.00 0.00 74 1014.3
20260503190004 59 347 1.7 7.0 0.00 0.00 0.00 75 1014.4
20260503185403 60 338 1.7 7.8 0.00 0.00 0.00 74 1014.4
20260503184503 60 19 1.7 7.0 0.00 0.00 0.00 75 1014.3
20260503183604 60 344 1.7 8.7 0.00 0.00 0.00 75 1014.0
20260503182704 60 356 1.7 8.7 0.00 0.00 0.00 74 1014.0
20260503181803 60 68 0.9 7.0 0.00 0.00 0.00 73 1013.8
20260503180903 61 48 1.7 7.0 0.00 0.00 0.00 72 1013.5
20260503180005 61 50 0.9 10.4 0.00 0.00 0.00 73 1013.1
20260503175616 61 50 0.9 10.4 0.00 0.00 0.00 73 1013.4
20260503174503 62 13 1.7 8.7 0.00 0.00 0.00 74 1012.9
20260503173603 62 340 2.6 8.7 0.00 0.00 0.00 75 1012.9
20260503172703 62 69 0.9 7.8 0.00 0.00 0.00 75 1012.7
20260503171803 62 30 1.7 7.0 0.00 0.00 0.00 74 1012.5
20260503170903 63 21 1.7 7.0 0.00 0.00 0.00 74 1012.3
20260503150903 68 345 1.7 6.1 0.00 0.00 0.00 66 1011.5